Location: Newark
(35.5300°N, 14.3000°E)
Time: 22:46:08
(UTC+00:00)

Transit 4A - Pass Details

Date: 26 November 2019
Orbit: 871 x 973 km, 66.8° (Epoch: 21 January)

Event Time Altitude Azimuth Distance (km) Brightness Sun altitude
Exits shadow 02:57:48 11° 14° (NNE) 2,462 10.2 -34.4°
Maximum altitude 03:00:46 16° 46° (NE) 2,161 10.2 -33.8°
Drops below altitude 10° 03:04:07 10° 82° (E) 2,520 11.0 -33.1°
Sets 03:07:42 0° 104° (ESE) 3,452 12.0 -32.3°
